Content
SEND FEEDBACK

Daily
Averages
Monthly
Summary
United States of America

REDDING, CALIFORNIA


Home > North America > United States > California
Elevation: 535 feet     Latitude: 40 31N     Longitude: 122 18W

WEATHER
 
SELECT A DAY
Number of Records: 187,331;   Date Range: 1/1/95 - 9/3/14
 
SHARE

PRINT THIS DATA

[ ← Previous Day ]
WEATHER ALMANAC - JULY 22, 2014
[ Next Day → ]
[ °C ]   °F
Weather ElementAverageHighLow
Temperature78 °F90 °F (4:53 pm)62.1 °F (5:53 am)
Dewpoint57.8 °F63 °F (1:53 am)50 °F (4:53 pm)
Humidity54.5 %93 % (5:53 am)25 % (4:53 pm)
Barometer29.96 in30.01 in (6:53 am)29.89 in (5:53 pm)
Wind Speed6.2 mph16.1 mph (2:53 pm)
Wind Gust19.6 mph (10:53 pm)
Weather ElementAverage
Visibility10 mi
Wind DirectionENE (81.4 °)

Weather ElementTotal
Precipitation---
Cooling Degree Days11.1 (Base 65)
Growing Degree Days26.1 (Base 50)
Averaged from 22 records on July 22, 2014
WEATHER CONDITIONS BREAKOUT
WIND DIRECTION BREAKOUT
WEATHER BY HOUR - JULY 22, 2014
[ °C ]   °F
Local TimeTemperatureDewpointHumidityBarometerVisibilityWind DirectionWind SpeedGust SpeedPrecipitationEventsConditions
1:53 AM66.9 °F63.0 °F87 %29.97 in10.0 miCalmClear
2:53 AM66.9 °F62.1 °F84 %29.97 in10.0 miCalmClear
3:53 AM64.9 °F62.1 °F90 %29.97 in10.0 miCalmClear
4:53 AM64.0 °F61.0 °F90 %29.98 in10.0 miCalmClear
5:53 AM62.1 °F60.1 °F93 %29.99 in10.0 miNE (50°)3.5 mphClear
6:53 AM64.4 °F60.8 °F88 %30.01 in10.0 miCalmClear
7:53 AM70.0 °F60.1 °F71 %30.01 in10.0 miCalmClear
8:53 AM73.9 °F60.1 °F62 %30.01 in10.0 miCalmClear
10:53 AM80.1 °F59.0 °F48 %29.99 in10.0 miCalmClear
11:53 AM82.0 °F57.9 °F44 %29.99 in10.0 miCalmClear
12:53 PM84.0 °F57.0 °F40 %29.97 in10.0 miVariable3.5 mphClear
1:53 PM87.1 °F57.0 °F36 %29.96 in10.0 miVariable4.6 mphClear
2:53 PM89.1 °F55.0 °F31 %29.95 in10.0 miSSE (150°)16.1 mphClear
3:53 PM89.1 °F57.9 °F35 %29.93 in10.0 miSSE (160°)13.8 mphClear
4:53 PM90.0 °F50.0 °F25 %29.90 in10.0 miSSE (160°)16.1 mphClear
5:53 PM89.1 °F52.0 °F28 %29.89 in10.0 miSSW (210°)10.4 mphClear
6:53 PM87.8 °F51.8 °F29 %29.91 in10.0 miSouth (190°)12.7 mphClear
7:53 PM86.0 °F55.9 °F36 %29.90 in10.0 miSouth (180°)11.5 mphClear
8:53 PM82.0 °F57.0 °F42 %29.91 in10.0 miSouth (180°)10.4 mphClear
9:53 PM81.0 °F57.9 °F45 %29.93 in10.0 miSouth (180°)8.1 mphClear
10:53 PM79.0 °F59.0 °F50 %29.94 in10.0 miSouth (170°)11.5 mph19.6 mphClear
11:53 PM77.0 °F54.0 °F45 %29.96 in10.0 miSSE (160°)13.8 mphClear
Hourly data recorded from KRDD, located miles away from Redding, California







STORIES FROM OUR PARTNERS